Regional Weather Roundup
Issued by NWS

Home | Current Version | Previous Version | Text Only | Print | Product List | Glossary On
Versions: 1 2 3 4 5 6 7 8 9 10 11 12 13 14 15 16 17 18 19 20 21 22 23 24 25 26 27 28 29 30 31 32 33 34 35 36 37 38 39 40 41 42 43 44 45 46 47 48 49 50
509
ASUS43 KMPX 201710
RWRMN
WEATHER ROUNDUP FOR MINNESOTA
NATIONAL WEATHER SERVICE TWIN CITIES/CHANHASSEN MN
1100 AM CST MON NOV 20 2017


NOTE: "FAIR" INDICATES FEW OR NO CLOUDS BELOW 12,000 FEET WITH NO
SIGNIFICANT WEATHER AND/OR OBSTRUCTIONS TO VISIBILITY. N/A MEANS
CURRENT SKY AND/OR WEATHER CONDITIONS ARE NOT AVAILABLE.

MNZ060>063-068>070-201800-
   Twin Cities Metro

CITY           SKY/WX    TMP DP  RH WIND       PRES   REMARKS
TWIN CITIES    CLOUDY    42  29  59 S9        29.54F
ST PAUL        CLOUDY    40  31  70 SE8       29.56F
CRYSTAL        CLOUDY    40  26  57 S10       29.52F
BLAINE         CLOUDY    41  28  60 S12       29.53F
LAKEVILLE      CLOUDY    39  28  65 S14       29.54F
EDEN PRAIRIE   CLOUDY    42  28  57 S14       29.53F
SOUTH ST PAUL  CLOUDY    41  30  63 S6        29.55F
LAKE ELMO      FAIR      39  32  75 S12       29.56F
$$
MNZ001>005-007-008-013>017-022>024-027-028-201800-
   Northwest Minnesota

CITY           SKY/WX    TMP DP  RH WIND       PRES   REMARKS
BEMIDJI        CLOUDY    35  26  69 S9        29.36F WCI  28
HALLOCK        CLOUDY    32  28  86 S16       29.29S WCI  21
ROSEAU         CLOUDY    37  28  70 S13       29.27F
WARROAD        CLOUDY    37  28  70 S8        29.29F
THIEF RVR FALL CLOUDY    35  27  72 SW13      29.34S WCI  26
CROOKSTON      CLOUDY    36  27  69 SW16      29.36S
FOSSTON        CLOUDY    37  25  60 S17       29.36F
DETROIT LAKES  CLOUDY    39  28  65 S8        29.39F
MOORHEAD       CLOUDY    36  25  64 S10G17    29.39F
PARK RAPIDS    CLOUDY    35  28  75 S7        29.39F WCI  29
MAHNOMEN       FAIR      38  27  66 S13       29.36F
$$
MNZ006-009>011-018-025>026-201800-
   North Central Minnesota

CITY           SKY/WX    TMP DP  RH WIND       PRES   REMARKS
BAUDETTE       CLOUDY    35  25  66 S10       29.31F WCI  27
FLAG ISLAND    CLOUDY    30  27  86 S15       29.27F WCI  19
INTL FALLS     CLOUDY    33  24  69 SE5       29.36F WCI  29
WASKISH        CLOUDY    39  27  60 S9        29.34F
BIG FORK       CLOUDY    36  25  64 S9        29.40F
LONGVILLE      CLOUDY    37  28  70 S8        29.41F
GRAND RAPIDS   CLOUDY    31  26  82 SE9       29.45F WCI  23
CRANE LAKE     CLOUDY    30  27  86 S5        29.45F WCI  25
ORR            CLOUDY    32  23  69 S7        29.40F WCI  26
COOK           CLOUDY    36  25  64 SE9G18    29.44F
WALKER         FAIR      37  26  63 S7        29.39F
$$
MNZ012-019>021-037-201800-
   Northeast Minnesota

CITY           SKY/WX    TMP DP  RH WIND       PRES   REMARKS
DULUTH         CLOUDY    30  27  88 S8        29.49F WCI  22
ELY            CLOUDY    34  25  69 S9        29.45F WCI  26
HIBBING        CLOUDY    30  24  78 SE7       29.46F WCI  23
EVELETH        CLOUDY    30  25  80 SE5       29.48F WCI  25
DULUTH HARBOR  CLOUDY    32  28  86 NE3       29.54F
TWO HARBORS    CLOUDY    36  30  80 E3        29.51F
SILVER BAY     CLOUDY    34  28  80 CALM      29.51F
GRAND MARAIS     N/A     36  27  69 E6        29.57F
G MARAIS ARPRT CLOUDY    27  23  86 SE5       29.52F WCI  21
$$
MNZ029>031-032-039>041-046>048-054>057-064-201800-
   West Central Minnesota

CITY           SKY/WX    TMP DP  RH WIND       PRES   REMARKS
FERGUS FALLS   CLOUDY    36  27  69 S12       29.44F
WHEATON        MOSUNNY   41  27  56 S7        29.45F
MORRIS         CLOUDY    37  28  70 S8        29.45F
ALEXANDRIA     CLOUDY    37  27  67 S7        29.47F
ELBOW LAKE     FAIR      37  28  69 S13       29.45F
WADENA         CLOUDY    37  27  65 S13       29.41F
GLENWOOD       CLOUDY    36  28  75 S8        29.47F
APPLETON         N/A     39  28  65 S3        29.47F
BENSON         CLOUDY    37  28  70 SW6       29.49S
ORTONVILLE     CLOUDY    39  28  65 MISG      29.46F
MADISON        CLOUDY    43  30  61 SW3       29.47S
WILLMAR        FAIR      37  30  75 SE7       29.49F
$$
MNZ033>034-036-042>043-049>051-058-059-201800-
   Central Minnesota

CITY           SKY/WX    TMP DP  RH WIND       PRES   REMARKS
ST CLOUD       CLOUDY    34  30  85 SE6       29.50F WCI  29
SAUK CENTRE    FAIR      33  28  82 S7        29.47F WCI  27
PAYNESVILLE    CLOUDY    35  30  82 S7        29.49F WCI  29
AITKIN         CLOUDY    37  27  65 S12G20    29.42F
PINE RIVER     CLOUDY    34  27  75 S6        29.46F WCI  29
BRAINERD       CLOUDY    41  26  55 S12       29.44F
STAPLES        CLOUDY    36  27  69 S10       29.43F
LONG PRAIRIE   FAIR      34  30  86 SE8       29.48F WCI  27
LITTLE FALLS   CLOUDY    34  23  64 S7        29.48F WCI  28
LITCHFIELD     CLOUDY    36  30  80 S3        29.50F
BUFFALO        CLOUDY    36  28  71 S7        29.52F
MAPLE LAKE     CLOUDY    36  31  81 S5        29.51F
HUTCHINSON     CLOUDY    37  30  76 S5        29.51F
$$
MNZ037-044-045-052-053-201800-
   East Central Minnesota

CITY           SKY/WX    TMP DP  RH WIND       PRES   REMARKS
PRINCETON      CLOUDY    37  30  75 S7        29.52F
MORA           CLOUDY    34  30  86 S5        29.53F WCI  30
CAMBRIDGE      CLOUDY    39  28  65 S8        29.52F
RUSH CITY      CLOUDY    36  30  78 S8        29.53F
MOOSE LAKE     CLOUDY    36  30  80 S5        29.47F
HINCKLEY       FAIR      34  32  93 S8        29.51F WCI  27
CLOQUET        CLOUDY    28  25  86 E6        29.48F WCI  22
MCGREGOR       CLOUDY    37  30  75 S9        29.46F
$$
MNZ071>073-080-081-089-090-097-098-201800-
   Southwest Minnesota

CITY           SKY/WX    TMP DP  RH WIND       PRES   REMARKS
MONTEVIDEO     CLOUDY    37  28  70 SW7       29.47F
GRANITE FALLS  CLOUDY    42  31  63 S9        29.49F
CANBY          CLOUDY    46  24  43 SW15G21   29.46F
MARSHALL       CLOUDY    42  26  53 SW10      29.49F
REDWOOD FALLS  CLOUDY    42  27  55 SW15      29.51F
OLIVIA         CLOUDY    37  30  75 S9        29.50S
PIPESTONE      CLOUDY    39  25  56 W12       29.52F
WINDOM           N/A     45  27  49 SW21      29.52F
WORTHINGTON    CLOUDY    40  26  57 SW21      29.54F
JACKSON        CLOUDY    43  27  52 SW18      29.55F
SLAYTON        MOSUNNY   39  28  63 SW17      29.51F
$$
MNZ065>067-074>077-082>085-091>093-201800-
   South Central Minnesota

CITY           SKY/WX    TMP DP  RH WIND       PRES   REMARKS
MANKATO        CLOUDY    41  28  60 SW15      29.55F
NEW ULM        CLOUDY    41  28  60 CALM      29.52F
ST JAMES       CLOUDY    45  28  53 S9        29.54F
FAIRMONT       CLOUDY    44  29  55 SW17      29.54F
GLENCOE        CLOUDY    39  31  71 S7        29.51F
FARIBAULT      CLOUDY    43  30  61 S7G16     29.56F
OWATONNA       CLOUDY    45  30  57 S17       29.57F
WASECA         CLOUDY    41  30  65 S17G24    29.58F
ALBERT LEA     CLOUDY    45  25  45 SW12G20   29.59F
$$
MNZ078>079-086>088-094>096-201800-
   Southeast Minnesota

CITY           SKY/WX    TMP DP  RH WIND       PRES   REMARKS
ROCHESTER      CLOUDY    42  31  64 S20       29.60F
RED WING       CLOUDY    43  27  52 S6        29.57F
STANTON        CLOUDY    43  30  61 S9        29.55F
DODGE CENTER   CLOUDY    41  28  60 S18       29.58F
WINONA         CLOUDY    46  30  53 S5        29.64F
AUSTIN         CLOUDY    43  30  61 S14G20    29.61F
PRESTON        CLOUDY    42  29  60 S18G24    29.62F
$$
ABBREVIATIONS USED IN REMARKS
   TC - TEMPERATURES IN CELSIUS
  WCI - WIND CHILL INDEX
   HX - HEAT INDEX
  VSB - VISIBILITY
$$




USA.gov is the U.S. government's official web portal to all federal, state and local government web resources and services.